YAMAL 601

Last updated on Tue Sep 22 2026 00:03:15 GMT+0000 (Coordinated Universal Time)

1 44307U 19031A 26264.49877740 .00000116 00000+0 00000+0 0 9994 2 44307 0.0161 170.1706 0002422 2.3488 56.4292 1.00271868 26891
UTC large
Height (km)
Speed (km/s)
/
Latitude / Longitude
Inclination (degrees)
Orbital Period (minutes)
Azimuth
Elevation
Range (km)
Doppler Factor

Next 0 passes for location: London (51.5072 / 0.1276)

No passes found over London.
YAMAL 601